Regional Weather Roundup
Issued by NWS Binghamton, NY

Home | Current Version | Previous Version | Text Only | Print | Product List | Glossary On
Versions: 1 2 3 4 5 6 7 8 9 10 11 12 13 14 15 16 17 18 19 20 21 22 23 24 25 26 27 28 29 30 31 32 33 34 35 36 37 38 39 40 41 42 43 44 45 46 47 48 49 50
000
ASUS41 KBGM 301610
RWRBGM
RWRBGM
BINGHAMTON REGIONAL WEATHER ROUNDUP
NATIONAL WEATHER SERVICE BINGHAMTON NY
1200 PM EDT SUN AUG 30 2015

Note: "fair" indicates few or no clouds below 12,000 feet with no
significant weather and/or obstructions to visibility.

* = Station(s) that does not report precipitation, such as rain,
snow, etc, also no thunder or fog.

!NYZ009-015>018-022>025-036-037-044>046-055>057-062-301700
...CENTRAL NEW YORK...

CITY           SKY/WX    TMP DP  RH WIND       PRES   REMARKS
BINGHAMTON     CLOUDY    72  61  68 W3        30.13F
CORTLAND       CLOUDY    73  63  68 SW5       30.13S
DANSVILLE      PTSUNNY   77  65  66 CALM      30.10F
ELMIRA         PTSUNNY   76  66  71 SW6       30.10S
ITHACA         CLOUDY    75  62  64 SW3       30.13S
HORNELL        PTSUNNY   75  63  64 NW8       30.15F
MONTICELLO     PTSUNNY   77  64  65 SW3       30.14F
NORWICH        PTSUNNY   72  63  73 CALM      30.12F
ONEONTA        SUNNY     72  57  60 W5        30.14S
PENN YAN       CLOUDY    75  64  68 CALM      30.11S
ROME           CLOUDY    75  60  59 CALM      30.11S
SIDNEY         MOSUNNY   77  68  73 CALM      30.12F
SYRACUSE       CLOUDY    75  64  68 NE5       30.08F
$$

!PAZ038>040-043-044-047-048-072-301700
...NORTHEAST PENNSYLVANIA...

CITY           SKY/WX    TMP DP  RH WIND       PRES   REMARKS
HAZLETON       MOSUNNY   79  64  61 SW5       30.19S
SCRANTON       PTSUNNY   79  64  60 SW7       30.12S
TOWANDA*       MOSUNNY   79  64  61 MISG      30.10F
$$
&&
KEY
WCI = WIND CHILL INDEX
VSB = VISIBILITY
HX  = HEAT INDEX
$$


USA.gov is the U.S. government's official web portal to all federal, state and local government web resources and services.